Location: Newark
(25.6108°S, 54.5803°W)
Time: 16:51:58
(UTC+00:00)

Courier 1B Rocket - Pass Details

Date: 04 November 2020
Orbit: 920 x 1202 km, 28.2° (Epoch: 22 November)

Event Time Altitude Azimuth Distance (km) Brightness Sun altitude
Rises 09:57:18 0° 262° (W) 4,026 7.6 14.5°
Reaches altitude 10° 10:00:12 10° 260° (W) 3,031 7.1 15.1°
Maximum altitude 10:07:41 75° 174° (S) 1,120 5.7 16.8°
Drops below altitude 10° 10:14:36 10° 88° (E) 2,816 9.5 18.3°
Sets 10:17:13 0° 86° (E) 3,726 9.6 18.9°
